Regional Weather Roundup
Issued by NWS

Home | Current Version | Previous Version | Graphics & Text | Print | Product List | Glossary On
Versions: 1 2 3 4 5 6 7 8 9 10 11 12 13 14 15 16 17 18 19 20 21 22 23 24 25 26 27 28 29 30 31 32 33 34 35 36 37 38 39 40 41 42 43 44 45 46 47 48 49 50
000
ASUS43 KLMK 232010
RWRKY
KENTUCKY REGIONAL WEATHER ROUNDUP
NATIONAL WEATHER SERVICE LOUISVILLE KY
400 PM EDT FRI JUN 23 2017

NOTE "FAIR" INDICATES FEW OR NO CLOUDS BELOW 12,000 FEET
WITH NO SIGNIFICANT WEATHER AND/OR OBSTRUCTIONS TO VISIBILITY.

KYZ001>023-026-027-061>063-070>075-232100-
WESTERN AND SOUTH CENTRAL KENTUCKY

CITY           SKY/WX    TMP DP  RH WIND       PRES   REMARKS
PADUCAH        CLOUDY    83  73  72 W9        29.69R
HENDERSON      CLOUDY    76  74  93 CALM      29.67R
OWENSBORO      LGT RAIN  76  73  91 VRB5      29.65F
HOPKINSVILLE   LGT RAIN  75  73  94 W23G32    29.64R
BOWLING GREEN  LGT RAIN  77  75  93 S16G32    29.63F FOG
GLASGOW        HVY RAIN  74  74 100 SE8       29.67F
$$

KYZ024-025-028>034-038-045-046-053-232100-
NORTH CENTRAL KENTUCKY

CITY           SKY/WX    TMP DP  RH WIND       PRES   REMARKS
LOUISVILLE/SDF RAIN      79  74  84 SW9       29.70S
LOUISVILLE/LOU RAIN      77  76  96 SW6       29.70S FOG
FORT KNOX      LGT RAIN  73  73 100 SW5       29.69S FOG
$$

KYZ035>037-039>044-047>052-055>060-089>105-232100-
NORTHEAST KENTUCKY

CITY           SKY/WX    TMP DP  RH WIND       PRES   REMARKS
LEXINGTON      CLOUDY    81  69  67 S14       29.73F
COVINGTON      HVY RAIN  69  68  96 W18       29.73S VSB 1
FRANKFORT      CLOUDY    81  70  69 S10       29.69F
$$

KYZ054-064>069-076>088-106>120-232100-
SOUTHEAST KENTUCKY

CITY           SKY/WX    TMP DP  RH WIND       PRES   REMARKS
JACKSON        LGT RAIN  77  71  82 VRB3      29.81F
LONDON         CLOUDY    81  70  69 S10       29.80F
SOMERSET       CLOUDY    79  68  69 S10G21    29.77F
MIDDLESBORO    PTSUNNY   83  68  60 S8G17     29.83F
MONTICELLO     LGT RAIN  80  72  76 S9        29.77F
$$




USA.gov is the U.S. government's official web portal to all federal, state and local government web resources and services.